Regional Weather Roundup
Issued by NWS

Home | Current Version | Previous Version | Graphics & Text | Print | Product List | Glossary On
Versions: 1 2 3 4 5 6 7 8 9 10 11 12 13 14 15 16 17 18 19 20 21 22 23 24 25 26 27 28
000
ASUS45 KSLC 280110
RWRUT

UTAH REGIONAL WEATHER ROUNDUP
NATIONAL WEATHER SERVICE SALT LAKE CITY UT
700 PM MDT THU APR 27 2017

UTZ001>011-023>025-280200-

NORTHERN UTAH

CITY           SKY/WX    TMP DP  RH WIND       PRES   REMARKS
BRIGHAM CITY   CLOUDY    45  26  46 CALM      29.83S
HILL AFB       PTSUNNY   46  21  36 W13       29.81S
LOGAN          CLOUDY    49  24  37 NW17      29.80R
OGDEN          PTSUNNY   46  22  38 NW6       29.80S
SALT LAKE CITY PTSUNNY   49  23  36 NW15      29.83R
TOOELE VALLEY  CLOUDY    46  28  49 NW12      29.84S
WENDOVER       MOSUNNY   51  16  24 NW23G31   29.85
HEBER CITY     PTSUNNY   43  21  42 N9        29.81S
WEST JORDAN    CLOUDY    49  32  52 NW17      29.84F

$$

UTZ011>015-024>027-280200-

CENTRAL/NORTHEAST UTAH

CITY           SKY/WX    TMP DP  RH WIND       PRES   REMARKS
PROVO AIRPORT  MOSUNNY   45  26  47 NW18      29.85R
MOAB/CANYONLAN PTSUNNY   56   9  15 NW22G31   29.70R
DELTA          CLOUDY    48  23  37 NW15G21   29.83S
PRICE          MOSUNNY   45  19  35 NW17G26   29.74R
RICHFIELD      MOSUNNY   41  34  75 W12G18    29.85
ROOSEVELT      SUNNY     50  12  22 W16G25    29.74R
VERNAL         CLOUDY    48  21  34 SE12G20   29.68R

$$

UTZ013>016-019>022-027-280200-

SOUTHERN UTAH

CITY           SKY/WX    TMP DP  RH WIND       PRES   REMARKS
BRYCE CANYON   CLOUDY    44  21  40 N13       29.80R
CEDAR CITY     PTSUNNY   54  22  28 N15       29.76R
MILFORD        MOSUNNY   51  27  39 NE24      29.79R
ST GEORGE      MOCLDY    73  22  14 NW13      29.64S
HANKSVILLE     SUNNY     57  19  23 NW22G29   29.73S
KANAB          MOSUNNY   64  19  17 W14G24    29.74
BLANDING       PTSUNNY   52  12  20 NW18G26   29.79R

$$

REGIONAL REPORTS     COLORADO/ARIZONA

CITY           SKY/WX    TMP DP  RH WIND       PRES   REMARKS
CRAIG, CO      LGT SNOW  36  29  75 W15       29.72R WCI  27
GRAND JUNCTION CLOUDY    52  19  27 SW14G26   29.66S
RIFLE, CO      CLOUDY    43  35  73 S8        29.70R
MONTROSE, CO   CLOUDY    52  15  23 NW16G25   29.68R
CORTEZ, CO     CLOUDY    52  17  25 NW20G28   29.70R
COLORADO CITY    N/A     64  27  24 NW18      29.75R
PAGE, AZ       MOSUNNY   69  19  15 W13G28    29.63S
GRAND CANYON   PTSUNNY   58  23  26 W16G29    29.79R
KINGMAN, AZ    MOSUNNY   77  26  15 W12       29.70F
FLAGSTAFF, AZ  PTSUNNY   57  17  21 W21G35    29.79R

$$

REGIONAL REPORTS    NEVADA/IDAHO/WYOMING

CITY           SKY/WX    TMP DP  RH WIND       PRES   REMARKS
LAS VEGAS, NV  PTSUNNY   82  16   8 N18       29.62R
ELY, NY        MOSUNNY   45  20  36 NW18      29.86S
ELKO, NV       PTSUNNY   42  28  57 VRB3      29.92R
POCATELLO, ID  CLOUDY    43  25  49 W25G33    29.81S
BURLEY, ID     LGT RAIN  44  18  35 W22G41    29.83R
FORT BRIDGER,    N/A     36  23  59 W24G30    29.79R WCI  24
EVANSTON, WY   CLOUDY    35  24  64 W15       29.79R WCI  25
ROCK SPRINGS,  CLOUDY    39  16  39 W26G35    29.70R WCI  28
KEMMERER, WY   LGT SNOW  32  27  80 NW21G28   29.75R WCI  20

$$




USA.gov is the U.S. government's official web portal to all federal, state and local government web resources and services.